This demonstration page uses our WeatherBlox Daily Observations layout. Learn more.

Left ArrowRight Arrow

39.92423, -83.80882

Hourly Observations for February 23, 2022

Temp ( °F °C ) Dew Point ( °F °C ) Humidity (%) Winds ( mph kmh ) Pressure ( in mb ) Visibility ( mi km ) Precip ( " mm )
12:41 am 00:41 Cloudy 39 4 39 4 100 100 WNW 16 26 30.10 1019 7 11 0.00 0.00
12:56 am 00:56 Cloudy 37 3 N/A N/A WNW 20 31 30.08 1019 8 13 0.00 0.00
1:18 am 01:18 Cloudy with Haze 37 3 N/A N/A WNW 21 33 30.11 1020 6 10 0.00 0.00
1:42 am 01:42 Cloudy with Haze 36 2 N/A N/A WNW 18 30 30.14 1020 5 8 0.00 0.00
1:56 am 01:56 Cloudy with Haze 34 1 N/A N/A WNW 22 35 30.11 1020 6 10 0.00 0.00
2:33 am 02:33 Cloudy 34 1 N/A N/A W 17 28 30.16 1021 9 14 0.00 0.00
2:56 am 02:56 Cloudy 32 0 N/A N/A WNW 16 26 30.14 1021 8 13 0.00 0.00
3:56 am 03:56 Cloudy 30 -1 N/A N/A WNW 18 30 30.17 1022 9 14 0.00 0.00
4:38 am 04:38 Cloudy 28 -2 28 -2 100 100 WNW 16 26 30.24 1024 10 16 0.00 0.00
4:56 am 04:56 Cloudy 29 -1.7 29 -1.7 100 100 WNW 16 26 30.21 1023 10 16 0.00 0.00
5:56 am 05:56 Cloudy 28 -2.2 28 -2.2 100 100 NW 20 31 30.25 1025 10 16 0.00 0.00
6:56 am 06:56 Cloudy 28 -2.2 28 -2.2 100 100 W 13 20 30.29 1026 10 16 0.00 0.00
7:56 am 07:56 Cloudy 28 -2.2 27 -2.8 96 96 NW 14 22 30.32 1027 9 14 0.00 0.00
8:12 am 08:12 Cloudy 28 -2 27 -3 93 93 WNW 9 15 30.36 1028 10 16 0.00 0.00
8:56 am 08:56 Cloudy 27 -2.8 27 -2.8 100 100 WNW 10 17 30.35 1028 10 16 0.00 0.00
9:56 am 09:56 Cloudy 27 -2.8 25 -3.9 92 92 WNW 15 24 30.37 1028 10 16 0.00 0.00
10:56 am 10:56 Cloudy 27 -2.8 25 -3.9 92 92 WNW 13 20 30.38 1029 10 16 0.00 0.00
11:49 am 11:49 Cloudy 28 -2 25 -4 86 86 NW 9 15 30.43 1031 10 16 0.00 0.00
11:56 am 11:56 Cloudy 28 -2.2 25 -3.9 88 88 WNW 13 20 30.41 1030 10 16 0.00 0.00
12:56 pm 12:56 Cloudy 28 -2.2 24 -4.4 85 85 NW 12 19 30.41 1030 9 14 0.00 0.00
1:56 pm 13:56 Cloudy 28 -2.2 23 -5 81 81 NW 10 17 30.40 1030 10 16 0.00 0.00
2:56 pm 14:56 Cloudy 28 -2.2 23 -5 81 81 NNW 10 17 30.40 1029 10 16 0.00 0.00
3:56 pm 15:56 Cloudy 27 -2.8 23 -5 85 85 NNW 9 15 30.43 1030 10 16 0.00 0.00
4:56 pm 16:56 Cloudy 26 -3.3 22 -5.6 84 84 N 9 15 30.42 1030 10 16 0.00 0.00
5:56 pm 17:56 Cloudy 26 -3.3 21 -6.1 81 81 N 9 15 30.44 1031 10 16 0.00 0.00
6:56 pm 18:56 Cloudy 26 -3.3 21 -6.1 81 81 NNE 6 9 30.48 1032 10 16 0.00 0.00
7:56 pm 19:56 Cloudy 26 -3.3 21 -6.1 81 81 N 5 7 30.48 1032 10 16 0.00 0.00
8:56 pm 20:56 Cloudy 26 -3.3 21 -6.1 81 81 N 7 11 30.48 1032 10 16 0.00 0.00
9:56 pm 21:56 Mostly Cloudy 26 -3.3 22 -5.6 84 84 NE 7 11 30.46 1032 10 16 0.00 0.00
10:56 pm 22:56 Cloudy 26 -3.3 23 -5 88 88 ENE 9 15 30.42 1030 10 16 0.00 0.00
11:43 pm 23:43 Cloudy 27 -3 21 -6 80 80 NE 14 22 30.41 1030 10 16 0.00 0.00
11:56 pm 23:56 Cloudy 26 -3.3 22 -5.6 84 84 NE 9 15 30.39 1029 10 16 0.00 0.00

Powered by AerisWeather